[[{"header":{"parameterUnit":"m.s-1","parameterCategory":1,"la1":30.2991,"la2":30.254,"lo1":-89.0895,"lo2":-89.0444,"dy":0.0017,"dx":0.0017,"nx":28,"ny":28,"refTime":"2024-03-20T09:00:00:Z","depth":0,"parameterNumber":2,"parameterNumberName":"U-component_of_WINDS"},"data":[0,0,0,0,0,0,0,0,0,0,0,0,0,0,0,0,0,0,0,0,0,0,0,0,0,0,0,0,0,0,0,0,0,0,0,0,0,0,0,0,0,0,0,0,0,0,0,0,0,0,0,0,0,0,0,0,0,0,1.2388,1.2388,0,1.2437,1.2438,1.2438,1.2426,1.2425,1.2424,1.2423,1.2472,1.2474,1.2476,0,0,0,0,0,0,0,0,0,0,0,0,0,1.2279,1.2281,1.2388,1.2388,1.2389,1.2437,1.2438,1.2438,1.2426,1.2425,1.2424,1.2423,1.2471,1.2474,1.2477,0,0,0,0,0,0,0,0,0,0,0,0,0,1.2327,1.2282,1.2388,1.2389,1.2389,1.2437,1.2438,1.2439,1.2427,1.2425,1.2424,1.2422,1.247,1.2474,1.2477,1.2526,0,0,1.2487,1.2488,0,0,0,0,0,0,0,0,1.2325,1.2331,1.2388,1.2389,1.2389,1.2424,1.2417,1.2468,1.2427,1.2412,1.2423,1.2422,1.2457,1.2461,1.2474,1.2528,1.253,1.2487,1.2489,1.2491,1.2492,0,0,0,0,0,0,0,1.2321,1.2329,1.2407,1.2389,1.239,1.2386,1.2391,1.2427,1.2442,1.2413,1.2413,1.2419,1.2457,1.2471,1.2475,1.2531,1.2487,1.249,1.2492,1.2493,1.2625,1.2626,0,0,0,0,0,0,1.2318,1.2326,1.2406,1.2409,1.2353,1.2389,1.2395,1.2414,1.2442,1.2445,1.242,1.2418,1.2466,1.2471,1.2476,1.2533,1.2491,1.2494,1.2496,1.2623,1.2625,1.2627,0,0,0,0,0,0,1.2315,1.2325,1.2404,1.2367,1.2377,1.2392,1.2414,1.2416,1.2429,1.2447,1.2449,1.2431,1.2465,1.2472,1.2513,1.2535,1.2495,1.2498,1.2622,1.2624,1.2626,1.2649,0,0,0,0,0,0,1.2312,1.2324,1.2344,1.2368,1.2379,1.2441,1.2416,1.2418,1.2435,1.2433,1.2458,1.246,1.2464,1.2508,1.2516,1.2539,1.2501,1.262,1.2623,1.2625,1.2646,1.2652,1.2656,0,0,0,0,0,1.2309,1.2349,1.2345,1.2355,1.2404,1.2442,1.2448,1.2452,1.2437,1.2456,1.2467,1.246,1.2532,1.2513,1.2522,1.2545,1.2618,1.2622,1.2625,1.2644,1.2651,1.2656,0,0,0,0,0,0,1.2327,1.2352,1.2348,1.2397,1.2417,1.244,1.2464,1.246,1.2484,1.2481,1.2485,1.249,1.2532,1.2543,1.2521,1.2593,1.2573,1.2578,1.2584,1.259,1.2595,1.2591,1.2503,0,0,0,0,0,1.2336,1.2366,1.2386,1.2427,1.2438,1.2449,1.2466,1.2467,1.2488,1.2496,1.251,1.253,1.2557,1.2574,1.26,1.2648,1.2652,1.2669,1.2674,1.2678,1.2682,1.2705,1.2712,1.2638,1.2638,1.2638,0,0,1.2357,1.2374,1.2392,1.2431,1.2447,1.2476,1.2456,1.2489,1.2509,1.2501,1.254,1.2551,1.2573,1.2617,1.2637,1.2628,1.2703,1.2682,1.2685,1.2687,1.2709,1.2716,1.2722,1.264,1.264,1.264,0,0,1.2408,1.2425,1.246,1.2476,1.25,1.2507,1.2516,1.2538,1.2545,1.2585,1.2578,1.2603,1.265,1.2665,1.2679,1.2734,1.2727,1.2743,1.2768,1.2791,1.2797,1.2802,1.2819,1.2825,1.2747,1.2747,1.2747,0,1.243,1.2474,1.2479,1.251,1.2527,1.2521,1.2555,1.257,1.2601,1.2612,1.2601,1.2658,1.2673,1.2719,1.2732,1.2745,1.2752,1.2739,1.2796,1.2801,1.2806,1.2822,1.2829,1.2748,1.2748,1.2748,1.2748,0,1.2498,1.2529,1.2554,1.2584,1.2603,1.2636,1.2644,1.2663,1.2662,1.267,1.2709,1.2727,1.2755,1.2766,1.2766,1.2812,1.2805,1.2795,1.2774,1.2814,1.2829,1.2836,1.2751,1.275,1.275,1.2749,0,0,1.2562,1.2593,1.2602,1.2614,1.264,1.2663,1.2695,1.2722,1.2737,1.2759,1.2784,1.2823,1.2813,1.2829,1.2831,1.2851,1.289,1.2838,1.2839,1.2845,1.2938,1.2944,1.2951,1.2886,1.2888,1.2889,1.2935,0,1.2614,1.267,1.2674,1.2725,1.2751,1.2745,1.2773,1.279,1.2798,1.2821,1.283,1.2856,1.2843,1.2852,1.2872,1.2881,1.2908,1.2878,1.2908,1.2909,1.29,1.296,1.2966,1.301,1.2942,1.2943,1.2944,0,1.2681,1.2704,1.2757,1.2776,1.2788,1.2813,1.2837,1.286,1.2879,1.2883,1.29,1.2898,1.2929,1.2908,1.295,1.2929,1.2941,1.2948,1.2949,1.2951,1.2927,1.296,1.3024,1.3029,1.2954,1.2953,1.2952,0,1.2719,1.2764,1.28,1.2811,1.2836,1.2853,1.2863,1.2881,1.2897,1.2918,1.2928,1.2952,1.2965,1.2984,1.2988,1.2973,1.3028,1.3009,1.303,1.303,1.3041,1.304,1.3105,1.3053,1.3053,1.3053,1.3052,0,1.2775,1.2807,1.2817,1.284,1.2874,1.2879,1.2913,1.2922,1.2938,1.2961,1.2958,1.2979,1.2984,1.3006,1.301,1.3042,1.3049,1.3051,1.3051,1.305,1.305,1.3057,1.3053,1.3054,1.3054,1.3054,1.3053,0,1.2823,1.2832,1.287,1.289,1.2896,1.292,1.2936,1.2957,1.2964,1.2993,1.3,1.301,1.3036,1.3042,1.3073,1.3075,1.3112,1.3111,1.3106,1.3105,1.3126,1.3123,1.3196,1.3205,1.3149,1.3149,1.315,0,1.2857,1.2882,1.2903,1.2918,1.293,1.2955,1.297,1.2975,1.2991,1.3013,1.303,1.3056,1.3076,1.3116,1.3126,1.3149,1.3147,1.3171,1.315,1.3147,1.3144,1.3142,1.3143,1.3174,1.3175,1.3175,1.3176,0,1.2916,1.2918,1.2941,1.2965,1.2983,1.3002,1.302,1.3033,1.304,1.3057,1.3083,1.3099,1.313,1.3154,1.3176,1.3186,1.3181,1.3182,1.3188,1.3186,1.3181,1.3182,1.3114,1.318,1.318,1.3179,1.3179,1.3179,1.2957,1.2977,1.2994,1.3019,1.3033,1.305,1.3069,1.3078,1.31,1.3125,1.3127,1.3154,1.3171,1.32,1.3212,1.3232,1.3225,1.3234,1.3236,1.3237,1.3238,1.318,1.3237,1.3236,1.3236,1.3236,1.3236,0,1.3013,1.3024,1.3047,1.3071,1.309,1.3085,1.3104,1.312,1.3144,1.316,1.318,1.3208,1.3231,1.3243,1.3265,1.3279,1.3277,1.3285,1.3283,1.3284,1.3244,1.3236,1.3286,1.3286,1.3286,1.3285,1.3285,1.3285,1.3044,1.3077,1.3082,1.3121,1.3131,1.3158,1.3169,1.3184,1.3196,1.3228,1.3247,1.3255,1.3268,1.3291,1.3311,1.3314,1.3321,1.3329,1.333,1.3293,1.3288,1.3283,1.3275,1.3331,1.3331,1.3368,1.3369,1.3369]},{"header":{"parameterUnit":"m.s-1","parameterCategory":1,"la1":30.2991,"la2":30.254,"lo1":-89.0895,"lo2":-89.0444,"dy":0.0017,"dx":0.0017,"nx":28,"ny":28,"refTime":"2024-03-20T09:00:00:Z","depth":0,"parameterNumber":3,"parameterNumberName":"V-component_of_WINDS"},"data":[0,0,0,0,0,0,0,0,0,0,0,0,0,0,0,0,0,0,0,0,0,0,0,0,0,0,0,0,0,0,0,0,0,0,0,0,0,0,0,0,0,0,0,0,0,0,0,0,0,0,0,0,0,0,0,0,0,0,1.7632,1.7632,0,1.7659,1.7659,1.766,1.7631,1.763,1.7629,1.7628,1.7655,1.7657,1.7659,0,0,0,0,0,0,0,0,0,0,0,0,0,1.7554,1.7556,1.7632,1.7632,1.7633,1.7659,1.7659,1.766,1.7631,1.763,1.7628,1.7627,1.7655,1.7657,1.7659,0,0,0,0,0,0,0,0,0,0,0,0,0,1.7585,1.7556,1.7632,1.7622,1.7621,1.7659,1.7659,1.766,1.7631,1.763,1.7628,1.7627,1.7654,1.7657,1.7659,1.7709,0,0,1.7667,1.7668,0,0,0,0,0,0,0,0,1.7584,1.7588,1.7623,1.7622,1.7622,1.764,1.7642,1.7676,1.7632,1.7627,1.7628,1.7626,1.7651,1.7654,1.7663,1.771,1.7711,1.7667,1.7669,1.767,1.7671,0,0,0,0,0,0,0,1.7581,1.7587,1.7643,1.7623,1.7623,1.7615,1.7618,1.7648,1.7648,1.7628,1.7626,1.7629,1.7651,1.766,1.7663,1.7712,1.7667,1.767,1.7671,1.7672,1.7798,1.7799,0,0,0,0,0,0,1.7581,1.7585,1.7642,1.7644,1.7598,1.7618,1.7621,1.7636,1.7648,1.7648,1.7631,1.7628,1.7657,1.766,1.7664,1.7721,1.767,1.7673,1.7674,1.7796,1.7798,1.78,0,0,0,0,0,0,1.7579,1.7586,1.7641,1.7614,1.762,1.7621,1.7638,1.7637,1.7647,1.765,1.765,1.7641,1.7656,1.766,1.7697,1.7722,1.7674,1.7676,1.7794,1.7797,1.7799,1.7837,0,0,0,0,0,0,1.7577,1.7586,1.7605,1.7615,1.7622,1.7674,1.764,1.7639,1.7651,1.7648,1.7659,1.766,1.7655,1.7693,1.77,1.7725,1.7678,1.7792,1.7795,1.7798,1.7833,1.784,1.7846,0,0,0,0,0,1.7574,1.7615,1.7606,1.7613,1.7646,1.7676,1.768,1.7673,1.7654,1.7672,1.7674,1.7659,1.7718,1.7697,1.7704,1.773,1.779,1.7794,1.7798,1.783,1.7839,1.7846,0,0,0,0,0,0,1.7609,1.7616,1.7606,1.7652,1.7663,1.7671,1.7695,1.7683,1.77,1.7696,1.7687,1.769,1.7728,1.7733,1.771,1.7778,1.7751,1.7756,1.7773,1.7781,1.7788,1.7785,1.7681,0,0,0,0,0,1.7622,1.7646,1.7651,1.769,1.7696,1.7694,1.7707,1.7701,1.7712,1.7717,1.7722,1.7733,1.7754,1.7768,1.7788,1.7834,1.7835,1.7855,1.7861,1.7867,1.7871,1.7894,1.7902,1.7813,1.7813,1.7813,0,0,1.7649,1.7656,1.7672,1.7697,1.7705,1.7729,1.7699,1.7726,1.7743,1.7721,1.7756,1.7759,1.7771,1.7813,1.7831,1.7818,1.7896,1.7872,1.7876,1.7878,1.7899,1.7907,1.7915,1.7816,1.7815,1.7815,0,0,1.771,1.7719,1.7751,1.7759,1.7772,1.777,1.7778,1.7787,1.7788,1.7822,1.7806,1.7826,1.7862,1.7871,1.788,1.7942,1.7928,1.7949,1.7983,1.8005,1.8012,1.8018,1.8038,1.8046,1.7953,1.7954,1.7954,0,1.7743,1.7778,1.777,1.7797,1.7808,1.7788,1.782,1.7829,1.7847,1.7855,1.784,1.7883,1.7891,1.7932,1.7947,1.7956,1.7963,1.7947,1.8012,1.8018,1.8023,1.8043,1.805,1.7956,1.7956,1.7955,1.7955,0,1.7816,1.784,1.7865,1.7882,1.7896,1.7926,1.7921,1.7936,1.7927,1.7927,1.7961,1.7968,1.7988,1.7998,1.7991,1.8038,1.8029,1.8013,1.7986,1.8034,1.8052,1.806,1.7959,1.7958,1.7958,1.7957,0,0,1.7901,1.7911,1.792,1.7927,1.7938,1.7956,1.7984,1.8003,1.8015,1.8028,1.805,1.8081,1.8065,1.8075,1.8069,1.8088,1.8135,1.807,1.807,1.808,1.8185,1.8196,1.8205,1.8126,1.8127,1.8128,1.8183,0,1.7961,1.801,1.8002,1.8048,1.807,1.805,1.8074,1.8083,1.8083,1.8101,1.81,1.8121,1.81,1.8106,1.8125,1.8125,1.8155,1.8121,1.8145,1.8146,1.8142,1.8215,1.8227,1.8279,1.8191,1.8192,1.8193,0,1.8038,1.8052,1.8101,1.8106,1.8115,1.8137,1.8152,1.8169,1.8178,1.8177,1.8187,1.8176,1.8203,1.8176,1.8212,1.8188,1.8198,1.8199,1.8201,1.8202,1.8172,1.8217,1.8296,1.8303,1.8204,1.8203,1.8202,0,1.8093,1.8125,1.8157,1.8163,1.8171,1.8186,1.819,1.8197,1.8208,1.8221,1.8228,1.8245,1.8253,1.8266,1.8259,1.824,1.8296,1.8268,1.8294,1.8294,1.8306,1.8306,1.8387,1.8314,1.8314,1.8314,1.8314,0,1.8161,1.8191,1.8181,1.8201,1.8234,1.8224,1.8256,1.8257,1.8264,1.8283,1.8267,1.8285,1.8276,1.8293,1.8288,1.8318,1.8322,1.8321,1.8319,1.8322,1.8322,1.8327,1.8323,1.8316,1.8316,1.8315,1.8315,0,1.8228,1.8223,1.8257,1.826,1.8262,1.8285,1.8288,1.8306,1.8304,1.8328,1.8333,1.833,1.8349,1.8344,1.8365,1.8362,1.8398,1.8393,1.8395,1.8393,1.8419,1.8416,1.8505,1.8516,1.8438,1.8439,1.8439,0,1.8271,1.8293,1.8298,1.831,1.8314,1.8333,1.8344,1.8334,1.8346,1.8356,1.8372,1.839,1.8404,1.8435,1.8435,1.845,1.8444,1.8474,1.8446,1.8447,1.8442,1.8441,1.8442,1.8479,1.848,1.8481,1.8482,0,1.8347,1.8343,1.8358,1.8373,1.8385,1.8396,1.8406,1.8416,1.8407,1.842,1.8439,1.845,1.847,1.8487,1.8501,1.8505,1.8491,1.849,1.8497,1.8499,1.8499,1.8498,1.8409,1.8488,1.8488,1.8487,1.8487,1.8487,1.8402,1.842,1.8426,1.8443,1.8449,1.8458,1.8474,1.8473,1.8489,1.8504,1.8498,1.8519,1.8525,1.8542,1.8547,1.8563,1.8552,1.8562,1.8564,1.8566,1.8569,1.8497,1.8566,1.8566,1.8566,1.8566,1.8566,0,1.8476,1.8478,1.8494,1.8507,1.852,1.8506,1.8515,1.8527,1.8546,1.8553,1.8566,1.8586,1.8602,1.8602,1.8617,1.863,1.8624,1.8634,1.8632,1.8633,1.8579,1.8571,1.8638,1.8638,1.8638,1.8638,1.8638,1.8638,1.8516,1.8545,1.8541,1.8572,1.8574,1.8594,1.86,1.8608,1.8613,1.8636,1.8649,1.8649,1.8652,1.8667,1.8681,1.868,1.8686,1.8698,1.8695,1.8644,1.8637,1.863,1.8623,1.8699,1.8699,1.8747,1.8747,1.8748]}]]